User: anonymous   Login
Location: Unspecified
(0.0000°N, 0.0000°E)
Time: 08:09:12
(UTC+00:00)
Language:

DICE 1 - Orbit

View from above orbital plane
View from above orbital plane
View from above satellite
View from above satellite

Ground track
Ground track

The orbit data is extracted from the following two-line orbital elements,

1 37851U 11061B   19345.71847920  .00000990  00000-0  58783-4 0  9996
2 37851 101.7441 325.4293 0181072 299.3962  58.9277 15.03775493442834
Epoch (UTC): 11 December 2019 17:14:36
Eccentricity: 0.0181072
inclination: 101.7441°
perigee height: 430 km
apogee height: 681 km
right ascension of ascending node: 325.4293°
argument of perigee: 299.3962°
revolutions per day: 15.03775493
mean anomaly at epoch: 58.9277°
orbit number at epoch: 44283

The dashed part of the orbit path shows where the satellite is in the earth's shadow,  

DLR